DB0OHA-13 Weather Reports


Display with metric or nautical units.
time (UTC)temp
F
wind
direction
speed
MPH
gust
MPH
rain 1hr
in
rain 24hr
in
rain mn
in
humidity
%
barometer
mb
20260507113112 48 58 0.0 0.0 0.02 0.39 0.20 1 1013.3
20260507112112 48 58 0.0 0.0 0.02 0.39 0.20 1 1013.2
20260507111112 48 58 0.0 0.0 0.03 0.39 0.20 1 1013.1
20260507110112 48 58 0.0 0.0 0.03 0.39 0.20 1 1013.1
20260507105112 48 58 0.0 0.0 0.03 0.58 0.19 1 1013.0
20260507104112 47 58 0.0 0.0 0.03 0.58 0.19 1 1012.8
20260507103112 48 58 0.0 0.0 0.02 0.57 0.18 1 1012.9
20260507102112 47 58 0.0 0.0 0.02 0.57 0.18 1 1012.7
20260507101112 47 58 0.0 1.0 0.01 0.56 0.17 1 1012.7
20260507100112 47 58 0.0 3.0 0.01 0.56 0.17 1 1012.5
20260507095111 48 58 1.0 4.0 0.00 0.55 0.16 1 1012.4
20260507094111 48 30 0.0 0.0 0.01 0.55 0.16 1 1012.2
20260507093111 48 30 0.0 0.0 0.01 0.55 0.16 1 1012.1
20260507092111 48 30 0.0 0.0 0.01 0.55 0.16 1 1012.1
20260507091111 47 30 1.0 3.0 0.01 0.55 0.16 1 1011.9
20260507090111 47 30 1.0 3.0 0.01 0.55 0.16 1 1011.9
20260507085111 47 30 1.0 3.0 0.01 0.55 0.16 1 1011.8
20260507084111 47 30 1.0 3.0 0.00 0.54 0.15 1 1011.7
20260507083110 47 31 2.0 3.0 0.00 0.54 0.15 1 1011.6
20260507082110 47 38 1.0 3.0 0.00 0.54 0.15 1 1011.5
20260507081110 47 38 0.0 3.0 0.00 0.54 0.15 1 1011.4
20260507080110 47 38 0.0 0.0 0.00 0.54 0.15 1 1011.1
20260507075110 47 38 0.0 0.0 0.00 0.57 0.15 1 1010.9
20260507073110 46 38 1.0 3.0 0.00 0.57 0.15 1 1010.7
20260507072110 46 38 1.0 3.0 0.00 0.57 0.15 1 1010.6
20260507071110 46 38 1.0 5.0 0.00 0.57 0.15 1 1010.5
20260507070110 47 27 2.0 6.0 0.00 0.57 0.15 1 1010.5
20260507065110 47 9 2.0 7.0 0.00 0.59 0.15 1 1010.4
20260507064110 48 9 1.0 5.0 0.00 0.59 0.15 1 1010.2
20260507063110 48 338 1.0 4.0 0.00 0.59 0.15 1 1010.0
20260507062109 48 276 0.0 0.0 0.00 0.59 0.15 1 1009.8
20260507061109 49 276 0.0 0.0 0.00 0.59 0.15 1 1009.8
20260507060109 49 276 0.0 0.0 0.00 0.59 0.15 1 1009.7
20260507054109 48 277 0.0 0.0 0.00 0.61 0.15 1 1009.4
20260507053109 49 277 0.0 0.0 0.00 0.61 0.15 1 1009.3
20260507052113 48 277 0.0 0.0 0.00 0.61 0.15 1 1009.1
20260507051113 48 277 0.0 0.0 0.00 0.61 0.15 1 1009.0
20260507050113 48 277 0.0 0.0 0.00 0.61 0.15 1 1008.9
20260507045113 49 277 0.0 0.0 0.00 0.61 0.15 1 1008.8
20260507044113 48 277 0.0 0.0 0.00 0.61 0.15 1 1008.6
20260507043113 48 277 0.0 0.0 0.00 0.61 0.15 1 1008.6
20260507042113 48 277 0.0 0.0 0.00 0.61 0.15 1 1008.5
20260507041113 48 277 0.0 0.0 0.01 0.61 0.15 1 1008.4
20260507035113 48 277 0.0 0.0 0.01 0.61 0.15 1 1008.3
20260507034113 48 277 0.0 0.0 0.01 0.61 0.15 1 1008.3
20260507033113 48 277 0.0 0.0 0.01 0.61 0.15 1 1008.3
20260507032112 48 277 0.0 0.0 0.01 0.61 0.15 1 1008.3
20260507031112 48 277 0.0 0.0 0.00 0.61 0.14 1 1008.2
20260507030112 48 277 0.0 0.0 0.01 0.61 0.14 1 1008.1
20260507025112 48 277 0.0 0.0 0.01 0.69 0.14 1 1008.0
20260507024112 48 277 0.0 0.0 0.03 0.69 0.14 1 1008.0
20260507023112 48 277 0.0 0.0 0.06 0.69 0.14 1 1008.0
20260507022112 48 277 0.0 0.0 0.10 0.69 0.14 1 1008.0
20260507021112 48 277 0.0 0.0 0.13 0.69 0.14 1 1007.9
20260507020111 48 277 0.0 0.0 0.13 0.69 0.13 1 1007.9
20260507014111 48 277 0.0 0.0 0.10 0.83 0.11 1 1007.8
20260507013111 48 277 0.0 0.0 0.08 0.81 0.09 1 1007.8
20260507012111 48 277 0.0 0.0 0.03 0.76 0.04 1 1007.7
20260507011111 48 277 0.0 8.0 0.00 0.73 0.01 1 1007.7
20260507010111 48 277 0.0 0.0 0.00 0.73 0.01 1 1007.5
20260507004111 48 277 0.0 4.0 0.00 0.95 0.01 1 1007.6
20260507003111 48 277 0.0 0.0 0.00 0.95 0.01 1 1007.5
20260507002110 48 277 0.0 3.0 0.00 0.95 0.01 1 1007.5
20260507001110 48 277 1.0 11.0 0.00 0.95 0.01 1 1007.5
20260507000110 48 277 1.0 3.0 0.01 0.95 0.01 1 1007.4
20260506234110 48 277 0.0 3.0 0.01 1.09 0.01 1 1007.4
20260506233110 48 277 1.0 6.0 0.01 1.09 0.01 1 1007.4
20260506232110 48 277 2.0 4.0 0.01 1.09 0.01 1 1007.3
20260506231110 48 277 2.0 4.0 0.01 1.09 0.01 1 1007.4
20260506230109 48 278 0.0 2.0 0.00 1.08 0.00 1 1007.3
20260506225110 48 281 0.0 3.0 0.00 1.27 0.00 1 1007.3
20260506224109 48 281 2.0 6.0 0.00 1.27 0.00 1 1007.1
20260506223109 48 273 2.0 8.0 0.00 1.27 0.00 1 1007.2
20260506222109 48 273 3.0 7.0 0.01 1.27 0.00 1 1007.1
20260506221109 49 278 2.0 6.0 0.01 1.27 0.00 1 1007.0
20260506220109 49 272 3.0 7.0 0.01 1.27 0.00 1 1007.0
20260506215113 49 285 1.0 4.0 0.02 1.38 1.38 1 1006.9
20260506214114 49 302 3.0 8.0 0.02 1.38 1.38 1 1006.9
20260506213113 49 273 3.0 8.0 0.02 1.38 1.38 1 1006.8
20260506212113 50 297 4.0 8.0 0.01 1.37 1.37 1 1006.9
20260506211113 50 287 1.0 5.0 0.01 1.37 1.37 1 1006.7
20260506210113 51 290 0.0 8.0 0.01 1.37 1.37 1 1006.7
20260506205113 51 290 2.0 4.0 0.00 1.43 1.36 1 1006.6
20260506204113 51 295 2.0 4.0 0.00 1.43 1.36 1 1006.6
20260506203112 51 256 0.0 0.0 0.00 1.43 1.36 1 1006.5
20260506202112 51 256 0.0 0.0 0.00 1.43 1.36 1 1006.5
20260506200112 52 256 0.0 0.0 0.00 1.43 1.36 1 1006.3
20260506195113 52 256 0.0 0.0 0.00 1.52 1.36 1 1006.3
20260506194112 52 256 0.0 0.0 0.00 1.52 1.36 1 1006.2
20260506193112 52 256 0.0 0.0 0.00 1.52 1.36 1 1006.1
20260506192112 53 256 0.0 0.0 0.00 1.52 1.36 1 1006.1
20260506191112 53 256 0.0 0.0 0.00 1.52 1.36 1 1005.9
20260506185111 52 256 0.0 3.0 0.00 1.57 1.36 1 1005.6
20260506184111 53 257 0.0 3.0 0.00 1.57 1.36 1 1005.4
20260506182111 53 256 2.0 7.0 0.00 1.57 1.36 1 1005.2
20260506181111 53 259 1.0 6.0 0.00 1.57 1.36 1 1004.9
20260506180111 53 259 1.0 3.0 0.00 1.57 1.36 1 1004.9
20260506175111 53 257 2.0 4.0 0.00 1.59 1.36 1 1004.9
20260506174111 53 261 2.0 4.0 0.00 1.59 1.36 1 1004.9
20260506173111 54 262 1.0 6.0 0.00 1.59 1.36 1 1005.0
20260506172111 54 265 2.0 9.0 0.00 1.59 1.36 1 1004.9
20260506171111 54 294 2.0 10.0 0.00 1.59 1.36 1 1004.9
20260506170111 55 267 4.0 10.0 0.00 1.59 1.36 1 1004.8
20260506165110 55 273 3.0 10.0 0.00 1.64 1.36 1 1004.7
20260506164110 55 271 1.0 7.0 0.00 1.64 1.36 1 1004.7
20260506162110 57 262 4.0 11.0 0.00 1.64 1.36 1 1004.6
20260506161110 57 260 2.0 9.0 0.00 1.64 1.36 1 1004.5
20260506160110 57 281 1.0 6.0 0.00 1.64 1.36 1 1004.5
20260506155110 58 273 1.0 4.0 0.00 1.67 1.36 1 1004.5
20260506154110 58 269 3.0 11.0 0.00 1.67 1.36 1 1004.5
20260506153110 58 286 5.0 10.0 0.00 1.67 1.36 1 1004.6
20260506152109 59 286 4.0 9.0 0.00 1.67 1.36 1 1004.6
20260506151109 59 275 4.0 9.0 0.00 1.67 1.36 1 1004.6
20260506150109 59 297 4.0 9.0 0.00 1.67 1.36 1 1004.6
20260506145109 60 282 2.0 7.0 0.00 1.67 1.36 1 1004.7
20260506144109 61 276 2.0 8.0 0.00 1.67 1.36 1 1004.6
20260506142114 60 265 0.0 2.0 0.00 1.67 1.36 1 1004.6
20260506141113 59 265 0.0 0.0 0.00 1.67 1.36 1 1004.7
20260506140114 59 265 0.0 3.0 0.00 1.67 1.36 1 1004.7
20260506135113 59 265 0.0 3.0 0.01 1.67 1.36 1 1004.8
20260506134113 59 265 0.0 0.0 0.02 1.67 1.36 1 1004.8
20260506133113 59 264 1.0 6.0 0.06 1.67 1.36 1 1004.8
20260506132113 59 41 0.0 0.0 0.09 1.67 1.36 1 1004.7
20260506131113 58 41 0.0 0.0 0.18 1.67 1.36 1 1004.6
20260506130113 57 41 0.0 0.0 0.18 1.67 1.36 1 1004.5
20260506125113 56 41 0.0 0.0 0.17 1.66 1.35 1 1004.6
20260506124113 56 41 0.0 0.0 0.19 1.65 1.35 1 1004.6
20260506122113 56 41 0.0 0.0 0.20 1.58 1.28 1 1004.5
20260506121112 56 41 0.0 0.0 0.14 1.49 1.18 1 1004.5
20260506120112 56 41 1.0 4.0 0.19 1.49 1.18 1 1004.4
20260506115112 56 40 0.0 2.0 0.20 1.49 1.18 1 1004.4
20260506114112 56 40 0.0 0.0 0.17 1.46 1.16 1 1004.3